USA 283

Last updated on Thu Sep 10 2026 00:02:59 GMT+0000 (Coordinated Universal Time)

1 43339U 18036A 26251.47168660 .00000000 00000+0 00000+0 0 9992 2 43339 0.0214 130.2081 0000751 126.5661 34.6372 1.00266737 26124
UTC large
Height (km)
Speed (km/s)
/
Latitude / Longitude
Inclination (degrees)
Orbital Period (minutes)
Azimuth
Elevation
Range (km)
Doppler Factor

Next 0 passes for location: London (51.5072 / 0.1276)

No passes found over London.
USA 283